FW3899 Weather Reports


Display with metric or nautical units.
time (UTC)temp
F
wind
direction
speed
MPH
gust
MPH
rain 1hr
in
rain 24hr
in
rain mn
in
humidity
%
barometer
mb
20260504003015 51 228 1.0 4.0 0.00 0.12 0.00 86 1014.0
20260504001513 51 245 2.0 3.0 0.00 0.12 0.00 86 1014.1
20260504000014 50 270 0.0 2.0 0.00 0.12 0.00 87 1014.2
20260503234511 51 301 0.0 1.0 0.00 0.12 0.00 85 1014.3
20260503233009 51 301 0.0 4.0 0.00 0.12 0.00 86 1014.3
20260503231509 51 262 3.0 5.0 0.00 0.12 0.00 88 1014.5
20260503230004 52 209 2.0 4.0 0.00 0.12 0.00 87 1014.4
20260503224501 55 36 0.0 3.0 0.00 0.12 0.00 87 1014.2
20260503223059 55 176 1.0 8.0 0.00 0.12 0.00 83 1014.4
20260503221556 54 217 4.0 7.0 0.00 0.12 0.00 85 1014.2
20260503220109 54 193 5.0 9.0 0.00 0.12 0.00 84 1014.2
20260503214554 53 162 0.0 0.0 0.00 0.12 0.12 87 1013.9
20260503213053 53 149 0.0 0.0 0.00 0.12 0.12 87 1013.7
20260503211606 52 149 1.0 4.0 0.00 0.12 0.12 89 1013.7
20260503210056 52 172 1.0 4.0 0.00 0.12 0.12 90 1013.7
20260503204556 51 172 0.0 3.0 0.00 0.12 0.12 90 1013.9
20260503203051 50 172 0.0 3.0 0.00 0.12 0.12 91 1014.1
20260503201551 50 203 3.0 4.0 0.00 0.12 0.12 90 1014.1
20260503200050 50 204 2.0 3.0 0.00 0.12 0.12 89 1014.0
20260503194549 51 204 2.0 4.0 0.00 0.12 0.12 89 1014.0
20260503193050 52 204 1.0 3.0 0.00 0.12 0.12 90 1013.8
20260503191546 53 206 2.0 3.0 0.00 0.12 0.12 89 1013.5
20260503190045 53 206 2.0 4.0 0.00 0.12 0.12 89 1013.4
20260503184546 54 222 1.0 4.0 0.00 0.12 0.12 87 1013.4
20260503183045 55 271 1.0 2.0 0.00 0.12 0.12 87 1013.3
20260503181616 55 271 1.0 3.0 0.00 0.12 0.12 85 1013.1
20260503180044 55 182 1.0 3.0 0.00 0.12 0.12 85 1013.0
20260503174542 56 176 0.0 3.0 0.00 0.12 0.12 86 1012.8
20260503173053 56 93 1.0 3.0 0.00 0.12 0.12 83 1012.9
20260503171540 57 203 5.0 11.0 0.00 0.12 0.12 80 1012.7
20260503100106 67 76 0.0 4.0 0.00 0.00 0.00 62 1013.7
20260503081531 64 241 6.0 9.0 0.00 0.00 0.00 65 1014.7
20260503071527 61 265 4.0 10.0 0.00 0.00 0.00 71 1014.6
20260503054510 58 262 5.0 9.0 0.00 0.00 0.00 73 1014.4
20260503053009 57 218 5.0 9.0 0.00 0.00 0.00 74 1014.3
20260503051503 57 203 4.0 7.0 0.00 0.00 0.00 75 1014.3
20260503050001 56 235 3.0 8.0 0.00 0.00 0.00 77 1014.2
20260503044626 54 263 4.0 6.0 0.00 0.00 0.00 80 1014.3
20260503043058 53 191 2.0 4.0 0.00 0.00 0.00 81 1014.3
20260503041556 53 235 1.0 3.0 0.00 0.00 0.00 79 1014.2
20260503040058 53 277 1.0 4.0 0.00 0.00 0.00 79 1014.3
20260503034557 52 284 3.0 4.0 0.00 0.00 0.00 81 1014.2
20260503033052 52 201 2.0 4.0 0.00 0.00 0.00 82 1014.3
20260503031550 52 190 0.0 0.0 0.00 0.00 0.00 82 1014.2
20260503024555 51 189 1.0 4.0 0.00 0.00 0.00 82 1014.6
20260503023048 52 267 1.0 4.0 0.00 0.00 0.00 79 1014.7
20260503021542 52 241 2.0 3.0 0.00 0.00 0.00 79 1014.9
20260503020039 54 241 3.0 4.0 0.00 0.00 0.00 76 1015.0
20260503014543 55 279 2.0 4.0 0.00 0.00 0.00 75 1015.1
20260503013034 57 232 0.0 0.0 0.00 0.00 0.00 72 1015.1
20260503011534 58 232 0.0 4.0 0.00 0.00 0.00 70 1015.1
20260503010033 58 240 3.0 5.0 0.00 0.00 0.00 71 1015.2
20260503004530 57 205 4.0 7.0 0.00 0.00 0.00 74 1015.4